Погода в Давенде

Россия / Забайкальский край     53°33′13″N   119°19′03″E
темп.,
°C
ветер,
м/с
пор.,
м/с
влажн.,
%
обл.,
%
осадки,
мм/ч
давл.,
гПа
погр.,
м
15 августа, пн
пн1500:00+15ссз236582 0.0 100448
03:00+11сз21785 0.0 100512
06:00+10сз227963 0.0 100514
09:00+18ю115539 0.0 1005255
12:00+22ююв223737 0.0 10041212
15:00+23ююз24386 0.0 10031947
18:00+21юз584992 0.0 1003830
21:00+15св008443 0.4 100311
16 августа, вт
вт1600:00+12зюз019021 0.4 100410
03:00+11зсз119111 0.6 100310
06:00+10зюз119288 0.0 100310
09:00+16ююз128292 0.0 1002194
12:00+22ююз474983 0.0 10001105
15:00+23юз3751100 0.0 998972
18:00+21зсз81158100 0.1 9981060
21:00+14сз119196 1.7 99911
17 августа, ср
ср1700:00+14з0093100 0.1 99910
03:00+12сз1195100 0.2 100010
06:00+11сз1195100 0.3 100010
09:00+15ссз1189100 0.3 1000142
12:00+14ююз4789100 2.3 1000212
15:00+14ююз119399 4.9 1000252
18:00+18зюз135791 0.0 9991206
21:00+12ю118383 0.0 100010
18 августа, чт
чт1800:00+10юз11930 0.0 100010
03:00+8зсз11945 0.0 100110
06:00+7сз22955 0.0 100222
09:00+12зсз25743 0.0 1003387
12:00+17сз4537100 0.0 10021268
15:00+18сз3434100 0.0 10031793
18:00+17ссз23425 0.0 10031672
21:00+11ссз2263100 0.0 100434
19 августа, пт
пт1900:00+10ссз2266100 0.0 100518
03:00+9сз117095 0.0 100510
06:00+7ссз22797 0.0 100617
09:00+14зюз015698 0.0 1005311
12:00+18юз2342100 0.0 10031461
15:00+17зюз364798 0.0 1002651
18:00+10сз25947 1.2 1005202
21:00+7ссз11947 1.3 100611